Dewpoint
11 11 11 11 10 9 9 9 7 8 6 5 6 6 6 6 5 4 3 3 4 2 1 3 3 1 0 0 -1 -1 -2 -3 -4 -5 -4 -3 -3 -5 -7 -7 -7 -5 -3 -7 -7 -8 -7 -9 -9 -8 -9 -8 -7 -6 -4 -5 -7 -6 -5 -3 -3 -4 -5 -7 -8 -8 -6 -5 -6 -7 -7 -7 -6 -5 -3 -3 -4 -4 3 -3 -2 -3 -3 -4 -4
11 10 10 10 9 9 8 7 7 7 5 5 5 6 5 4 4 4 3 3 4 3 3 3 3 1 1 0 -0 -1 -2 -1 -2 -3 -2 -4 -5 -4 -6 -6 -7 -7 -7 -8 -6 -6 -7 -8 -9 -9 -9 -8 -9 -8 -7 -6 -6 -5 -5 -4 -3 -4 -5 -7 -7 -7 -8 -7 -7 -8 -7 -6 -6 -6 -5 -4 -3 -2 -3 -3 -3 -3 -4 -4 -4
10 10 9 8 8 7 7 6 6 5 5 5 5 5 4 3 4 3 2 2 4 4 3 3 3 3 2 1 1 0 0 -1 -1 -2 -2 -3 -3 -3 -3 -5 -6 -7 -7 -6 -6 -6 -8 -7 -8 -8 -8 -8 -8 -7 -7 -7 -6 -5 -6 -5 -5 -5 -6 -6 -7 -8 -9 -9 -7 -7 -7 -7 -7 -7 -6 -5 -2 -1 -1 -2 -3 -3 -3 -3 -3
10 9 8 7 7 6 6 5 5 4 4 4 5 5 5 4 5 4 4 3 3 4 4 4 4 3 2 2 2 2 1 1 -0 -1 -2 -2 -2 -2 -3 -4 -5 -7 -7 -7 -6 -6 -7 -8 -8 -9 -8 -7 -8 -7 -6 -6 -5 -4 -5 -6 -6 -6 -6 -6 -6 -6 -7 -8 -7 -7 -7 -7 -7 -7 -6 -5 -2 -1 -1 -1 -2 -1 -3 -3 -3
10 9 8 7 6 6 5 5 4 4 4 4 4 4 4 4 4 5 4 4 4 4 4 4 4 4 3 3 3 2 2 2 1 -0 -1 -1 -1 -2 -3 -4 -5 -6 -6 -6 -2 -6 -7 -8 -9 -10 -9 -8 -9 -8 -7 -7 -7 -8 -7 -7 -7 -6 -6 -6 -6 -6 -7 -8 -8 -6 -6 -7 -7 -6 -5 -5 -4 -3 -2 -1 -2 -2 -2 -3 -3
9 8 8 7 6 5 5 4 4 4 4 4 4 4 4 4 4 4 4 4 5 4 4 4 5 5 4 3 3 2 3 2 1 0 1 1 0 -1 -2 -3 -4 -5 -5 -4 -4 -5 -6 -8 -9 -10 -9 -8 -8 -9 -9 -9 -9 -8 -8 -8 -8 -8 -8 -8 -7 -7 -7 -7 -7 -7 -6 -6 -7 -6 -6 -6 -4 -5 -4 -3 -3 -2 -3 -3 -3
8 8 7 6 6 5 4 4 4 4 4 4 4 4 4 4 4 4 4 4 5 4 4 5 5 5 4 4 3 3 2 1 1 1 2 2 2 1 -1 -3 -4 -4 -4 -3 -3 -5 -6 -7 -8 -9 -8 -8 -9 -10 -10 -11 -10 -11 -9 -10 -9 -9 -8 -7 -7 -7 -7 -7 -7 -7 -7 -7 -7 -7 -7 -6 -6 -5 -5 -5 -6 -5 -5 -4 -5
7 7 6 6 5 5 4 4 4 5 5 4 4 3 3 3 4 4 5 5 5 5 4 4 5 5 4 4 3 3 2 1 2 2 2 2 2 2 0 -1 -2 -3 -2 -1 -2 -3 -4 -6 -7 -8 -7 -8 -9 -10 -10 -10 -11 -11 -9 -10 -10 -9 -8 -8 -7 -7 -8 -8 -8 -8 -8 -7 -7 -7 -7 -6 -6 -6 -8 -6 -7 -6 -6 -5 -4
6 6 5 5 5 5 4 4 5 5 4 3 3 3 3 3 3 4 5 4 4 5 5 5 4 4 4 3 3 3 2 2 2 2 1 1 3 3 3 1 -0 -2 -3 -2 -1 -1 -3 -4 -5 -6 -5 -3 -3 -4 -5 -6 -10 -11 -10 -12 -10 -10 -9 -9 -8 -9 -9 -8 -9 -8 -8 -8 -8 -8 -8 -7 -7 -7 -5 -5 -6 -6 -5 -5 -5
4 4 4 4 5 5 4 4 4 3 3 2 2 2 2 2 3 4 4 4 4 4 4 4 4 3 3 3 2 2 2 1 2 3 3 1 1 2 2 2 2 0 -1 -1 -1 -1 -2 -4 -3 -0 0 0 0 -0 -1 -1 -2 -4 -7 -10 -10 -10 -10 -10 -10 -10 -10 -10 -10 -9 -9 -9 -9 -8 -7 -7 -6 -5 -6 -6 -7 -6 -5 -6 -6
3 3 4 5 6 5 4 3 3 3 3 3 3 2 2 2 3 3 3 3 3 3 3 3 3 3 2 2 1 1 1 1 2 4 5 4 2 1 2 4 5 4 1 -0 -1 -1 -2 -3 -4 -2 0 1 0 0 0 -0 -1 -1 -2 -2 -3 -6 -9 -10 -9 -10 -11 -11 -9 -9 -9 -9 -8 -8 -7 -7 -6 -7 -6 -6 -5 -5 -6 -7 -9
3 3 3 4 4 3 4 4 3 3 2 2 2 1 1 2 2 2 2 2 3 2 2 2 2 2 1 1 1 0 -0 1 3 4 8 10 5 3 3 5 6 5 3 2 1 0 -2 -4 -5 -5 -4 -5 -6 -6 -3 -1 -1 -1 -1 -2 -2 -2 -2 -4 -6 -8 -9 -10 -10 -9 -9 -9 -8 -8 -8 -7 -7 -6 -5 -4 -4 -5 -6 -7 -7
2 2 2 3 3 3 3 3 2 2 0 0 1 1 2 2 2 2 1 2 2 1 1 1 1 1 1 0 0 -0 0 1 3 4 6 9 10 6 6 7 7 5 4 2 1 -1 -3 -3 -4 -5 -5 -1 0 -4 -7 -7 -2 -2 -2 -2 -2 -2 -2 -2 -1 -3 -4 -5 -6 -7 -7 -7 -8 -8 -7 -6 -5 -6 -4 -4 -4 -4 -4 -6 -7
1 1 1 3 3 3 3 3 1 1 0 0 0 0 1 1 1 2 2 2 1 1 1 -0 0 1 1 0 0 0 0 0 2 3 4 8 11 9 7 7 7 6 4 2 1 -1 -3 -3 -4 -5 -6 -6 -6 -6 -8 -8 -8 -9 -9 -9 -9 -6 -4 -3 -2 -2 -1 -3 -4 -6 -5 -7 -7 -6 -5 -4 -4 -3 -3 -4 -3 -4 -5 -7 -8
0 1 1 3 4 4 3 1 0 0 0 -0 -0 -1 -0 1 1 1 1 1 1 1 0 -0 -0 0 1 0 -0 -1 -1 0 2 3 4 8 9 7 6 6 6 6 4 2 1 -1 -3 -5 -6 -6 -6 -6 -5 -5 -8 -9 -10 -9 -9 -9 -8 -8 -7 -7 -7 -7 -5 -5 -5 -5 -5 -5 -5 -4 -3 -2 -2 -1 -1 -2 -2 -4 -6 -7 -8
1 1 2 3 3 3 1 1 0 -0 -0 -1 -1 -1 1 1 1 1 1 1 1 1 1 1 0 0 0 0 -1 -1 0 1 2 3 3 6 6 5 2 3 3 3 2 0 -1 -1 -3 -4 -5 -5 -5 -5 -3 -1 -1 -4 -8 -9 -8 -8 -8 -7 -7 -4 -3 -2 -2 -3 -4 -5 -5 -4 3 1 5 8 6 2 -0 -2 -4 -7 -10 -12 -13
3 3 4 3 3 2 2 1 0 -0 -1 -2 -1 1 1 1 1 1 1 0 1 1 1 1 1 1 0 -0 -1 -2 -0 1 3 3 3 7 5 1 1 2 2 1 1 -0 -1 -2 -2 -3 -4 -3 -4 -4 -2 -0 1 1 -7 -8 -8 -8 -8 -8 -7 -7 -4 -2 -1 0 1 10 12 13 12 12 11 4 1 -1 -3 -5 -8 -12 -12 -14 -14
4 5 5 5 3 3 2 1 0 -0 -1 -2 -1 0 2 2 1 2 1 1 0 1 1 1 1 1 1 -0 -0 -1 -2 -0 2 3 3 3 5 1 1 0 -1 -1 -1 -2 -1 -1 -1 1 1 -3 -3 -3 -0 1 1 -1 -6 -7 -8 -9 -9 -9 -8 -7 -7 -6 -1 -1 -1 -1 -2 -1 -1 -1 -1 -1 -1 -1 -4 -8 -8 -9 -11 -12 -14
6 6 6 5 4 3 2 1 0 -0 -1 -1 1 1 1 1 1 1 2 2 1 2 1 1 1 1 1 1 -0 -2 -2 -1 1 2 3 3 3 -1 -0 -1 -2 -2 -2 -2 -2 -0 -1 1 3 2 -0 -1 2 2 2 -0 -6 -7 -8 -8 -8 -8 -7 -7 -7 -7 -7 -7 -6 -6 -6 -4 -5 -6 -5 -3 -2 -1 -3 -5 -6 -8 -10 -11 -12
8 7 6 5 4 3 2 1 1 0 -1 -0 2 2 2 2 2 2 2 2 1 1 0 1 1 1 2 1 -1 -1 -2 -1 1 2 2 3 3 1 -0 -2 -3 -3 -3 -2 -2 -3 -3 -3 0 2 3 3 4 4 3 2 -3 -5 -6 -6 -7 -7 -6 -7 -6 -4 -5 -5 -6 -7 -7 -6 -6 -6 -5 -5 -4 -4 -4 -5 -6 -8 -9 -10 -11
8 8 7 5 4 3 2 2 2 3 3 3 3 1 2 2 2 3 2 2 1 1 1 1 1 0 2 1 0 -0 -2 -2 -1 0 1 2 2 2 -0 -2 -3 -3 -4 -4 -4 -4 -3 -3 -4 1 3 3 3 3 3 2 2 -2 -4 -4 -5 -4 -2 -4 -4 -2 -5 -7 -7 -7 -7 -6 -6 -6 -6 -6 -5 -6 -5 -5 -8 -9 -9 -11 -11
9 8 6 4 3 4 3 3 2 4 4 3 2 2 3 2 3 3 2 2 2 2 2 -0 0 0 0 1 -0 -1 -1 -2 -4 -1 0 1 2 2 0 -2 -2 -4 -5 -5 -5 -4 -4 -4 -3 -1 1 1 2 2 2 1 1 -1 -2 -0 -0 -0 -1 -2 -3 -4 -6 -7 -8 -7 -7 -7 -8 -7 -7 -6 -5 -5 -8 -11 -11 -10 -9 -9 -10
9 7 5 4 3 2 4 2 1 4 4 3 3 2 3 3 2 1 2 3 2 2 2 1 0 -1 -0 -0 0 -0 -1 -2 -2 -3 -0 1 2 2 2 1 -0 -1 -4 -5 -6 -5 -5 -4 -2 0 1 0 -0 0 1 0 -0 -1 -0 -0 -0 0 -0 -2 -4 -6 -7 -8 -8 -8 -8 -8 -8 -8 -7 -7 -6 -8 -8 -9 -9 -9 -9 -9 -9
8 7 4 6 5 2 1 2 5 3 3 3 3 2 2 2 2 2 2 2 2 1 1 1 -1 -2 -2 -2 -0 0 0 -1 -1 -1 -2 -0 0 1 2 2 1 -2 -3 -4 -5 -5 -5 -5 -3 -2 -1 -1 -1 -0 -0 -1 -2 -1 -1 -0 -1 -1 -2 -4 -6 -7 -7 -8 -8 -9 -9 -9 -8 -8 -8 -7 -6 -8 -8 -8 -8 -9 -10 -10 -9
6 4 5 5 4 4 5 4 4 3 3 2 2 2 2 2 1 2 1 2 1 0 0 -2 -3 -3 -3 -3 -2 0 1 0 -2 -2 -2 -2 0 0 1 1 1 1 -1 -3 -3 -4 -3 -2 -1 -1 -2 -1 -1 -1 -1 -1 -0 -0 -0 -0 -0 -3 -5 -6 -7 -8 -9 -9 -9 -9 -9 -8 -8 -7 -6 -7 -7 -7 -8 -8 -9 -9 -10 -10 -10
4 3 4 3 1 1 2 3 3 3 3 3 2 2 2 1 1 1 1 0 0 -0 -2 -2 -3 -4 -4 -3 -3 -2 2 -0 -1 -3 -1 -2 -2 -1 -1 -0 -0 0 0 -2 -2 -2 -1 -1 -2 -2 -1 -1 -2 -5 -5 -5 -2 -1 -1 -1 -4 -4 -6 -7 -7 -8 -9 -9 -9 -10 -9 -9 -8 -7 -7 -7 -8 -9 -9 -9 -9 -10 -11 -11 -12
3 3 4 3 1 0 -1 1 2 2 2 2 1 3 2 1 0 -0 0 -0 -1 -2 -3 -3 -4 -4 -4 -4 -2 -1 2 -0 -1 -2 -4 -5 -5 -5 -3 -3 -2 -2 -2 -3 -2 -3 -3 -2 -1 -1 -2 -3 -3 -2 -2 -2 -2 -3 -3 -4 -4 -5 -5 -7 -7 -8 -9 -9 -9 -9 -9 -8 -7 -7 -8 -9 -9 -9 -8 -9 -10 -11 -11 -12 -13
2 2 1 1 -1 -0 -1 -2 -1 1 2 1 1 1 2 2 1 0 0 -1 -2 -2 -3 -4 -4 -4 -4 -3 -2 -0 0 -0 -1 -1 -3 -4 -5 -5 -5 -5 -6 -5 -5 -5 -6 -6 -6 -4 -5 -6 -6 -5 -4 -4 -3 -2 -2 -2 -3 -5 -6 -6 -4 -3 -3 -6 -7 -8 -8 -8 -7 -8 -9 -9 -9 -9 -9 -9 -9 -9 -11 -11 -12 -13 -14
2 1 1 0 -1 -1 -2 -2 -1 -0 1 1 1 2 1 1 1 2 2 1 0 -1 -2 -3 -3 -2 -2 -3 -2 -2 -1 -1 -0 1 -1 -1 -2 -3 -4 -5 -7 -8 -3 -2 -6 -8 -8 -8 -8 -7 -7 -6 -5 -4 -4 -4 -4 -4 -6 -7 -7 -8 -9 -12 -10 -9 -9 -8 -9 -9 -9 -9 -9 -9 -9 -10 -10 -10 -9 -10 -11 -12 -13 -13 -14
1 1 1 -0 -1 -2 -2 -2 -1 -1 1 0 1 1 -0 2 2 2 2 3 3 3 2 -2 -1 -1 -1 -1 -1 -2 -2 -1 2 3 2 1 -1 -3 -3 -3 -3 -6 -4 -3 -4 -10 -10 -10 -9 -8 -7 -7 -6 -5 -5 -5 -6 -6 -7 -5 -6 -7 -8 -8 -9 -8 -8 -8 -9 -9 -9 -9 -9 -9 -10 -10 -10 -10 -10 -10 -12 -12 -13 -14 -15
1 1 0 -1 -2 -2 -2 -2 -1 0 0 0 0 -1 0 1 4 4 3 3 2 2 3 3 3 2 -0 -2 -2 2 1 1 2 1 0 -1 -2 -3 -3 -3 -3 -3 -3 -6 -10 -13 -11 -10 -9 -9 -8 -6 -6 -5 -5 -6 -6 -7 -7 -7 -7 -7 -7 -9 -8 -9 -9 -9 -9 -9 -9 -9 -9 -9 -10 -10 -11 -11 -11 -11 -12 -13 -14 -14 -15
1 1 0 -1 -1 -2 -2 -2 -2 -2 -0 0 -0 -0 -1 -1 -0 -0 2 2 2 4 3 3 3 1 0 -0 -3 -4 -0 -0 -1 -1 -1 -2 -2 -2 -2 -2 -2 -2 -2 -3 -10 -11 -12 -10 -10 -9 -8 -7 -6 -5 -5 -6 -7 -7 -8 -8 -8 -9 -9 -9 -9 -11 -10 -10 -10 -9 -9 -9 -9 -9 -10 -10 -10 -11 -12 -13 -13 -14 -14 -14 -15
3 2 1 0 -1 -2 -2 -3 -3 -3 -1 -0 -0 -1 -1 -2 -3 -3 -3 0 2 1 2 1 0 0 -0 -0 -0 -1 -1 -1 -1 -1 -1 -1 -2 -2 -3 -3 -2 -2 -3 -8 -12 -11 -11 -10 -10 -8 -7 -6 -6 -6 -6 -7 -7 -7 -8 -8 -9 -9 -9 -9 -9 -10 -9 -9 -8 -8 -8 -8 -8 -9 -9 -10 -10 -12 -12 -13 -13 -14 -14 -15 -16
3 2 1 0 -1 -2 -3 -3 -3 -3 -1 -1 -2 -1 -1 -1 -2 -3 -5 -6 -5 -4 -3 -1 -0 -1 -1 -1 -2 -2 -1 -0 -0 -1 -1 -2 -2 -2 -3 -5 -4 -3 -5 -10 -11 -11 -10 -9 -8 -7 -7 -6 -6 -6 -6 -7 -7 -8 -8 -8 -8 -9 -9 -11 -10 -10 -9 -8 -8 -7 -7 -7 -8 -9 -10 -11 -11 -12 -13 -13 -13 -14 -15 -16 -16
4 1 -1 -1 -1 -2 -3 -3 -2 -1 -1 -1 -2 -2 -2 -1 -2 -3 -4 -6 -6 -6 -5 -4 -3 -1 -3 -2 -1 -2 -2 -2 -2 -2 -2 -2 -2 -3 -3 -10 -11 -9 -7 -8 -10 -10 -10 -9 -8 -7 -7 -6 -6 -7 -7 -8 -8 -8 -9 -9 -9 -10 -10 -10 -10 -10 -9 -8 -7 -7 -8 -8 -9 -10 -10 -11 -12 -13 -13 -13 -14 -15 -15 -16 -17
4 2 1 -0 -1 -2 -2 -3 -2 -2 -2 -1 -1 -1 -1 -1 -1 -2 -3 -4 -5 -7 -7 -5 -6 -3 -3 -2 -2 -2 -2 -2 -2 -2 -2 -2 -3 -4 -12 -13 -12 -10 -8 -7 -8 -8 -8 -7 -7 -6 -5 -6 -7 -7 -7 -8 -8 -8 -9 -9 -10 -10 -10 -10 -10 -9 -8 -7 -8 -8 -8 -9 -9 -10 -10 -11 -12 -12 -13 -13 -14 -15 -15 -16 -17
3 2 0 -0 -1 -2 -2 -1 -1 -1 -2 -2 -2 -1 -1 -0 -1 -1 -2 -3 -4 -5 -6 -5 -4 -5 -4 -5 -4 -3 -3 -3 -3 -3 -3 -3 -3 -6 -11 -12 -11 -10 -9 -7 -6 -6 -5 -5 -5 -5 -6 -7 -7 -7 -8 -8 -9 -10 -9 -9 -10 -11 -11 -10 -10 -9 -8 -8 -8 -8 -9 -9 -9 -9 -10 -11 -12 -13 -13 -14 -15 -15 -16 -16 -17
4 2 0 0 0 -1 -2 -2 -2 -3 -2 -1 -1 -0 -1 -0 -1 -1 -2 -2 -3 -5 -5 -3 -5 -7 -7 -7 -4 -5 -5 -4 -4 -4 -5 -5 -8 -10 -11 -11 -11 -11 -10 -9 -7 -7 -6 -6 -8 -8 -7 -7 -8 -8 -8 -9 -9 -9 -10 -11 -11 -11 -8 -9 -9 -8 -7 -7 -7 -8 -8 -9 -9 -10 -11 -12 -13 -14 -14 -15 -15 -17 -17 -17 -18
4 1 -0 -1 -1 -1 -2 -2 -3 -2 -2 -1 -1 -1 -1 -1 -1 -1 -1 -1 -2 -4 -5 -3 -5 -6 -6 -6 -7 -6 -7 -10 -11 -11 -11 -11 -11 -11 -11 -11 -10 -10 -9 -9 -8 -7 -7 -7 -7 -8 -7 -7 -7 -8 -9 -9 -9 -10 -11 -11 -11 -11 -11 -10 -9 -8 -7 -8 -8 -9 -9 -10 -10 -11 -11 -12 -13 -14 -15 -16 -17 -17 -18 -18 -18
3 0 -1 -1 -1 -1 -1 -2 -2 -2 -2 -1 -1 -1 -1 -1 -1 -1 -1 -1 -2 -3 -4 -3 -4 -5 -4 -6 -8 -8 -10 -11 -11 -11 -11 -10 -10 -10 -10 -10 -10 -9 -8 -7 -6 -7 -8 -7 -9 -8 -8 -10 -9 -8 -10 -10 -10 -10 -12 -11 -11 -11 -11 -10 -9 -8 -8 -8 -9 -10 -10 -11 -11 -11 -12 -13 -14 -15 -15 -16 -17 -17 -17 -18 -18
2 -0 -2 -2 -1 -1 -2 -1 -2 -2 -1 -1 -1 -1 -1 -1 -1 -2 -2 -2 -3 -4 -4 -3 -3 -2 -3 -6 -5 -7 -10 -10 -10 -9 -8 -7 -7 -8 -8 -8 -8 -7 -6 -6 -7 -9 -8 -8 -9 -9 -9 -10 -10 -9 -10 -12 -11 -12 -11 -11 -11 -11 -11 -10 -8 -8 -9 -10 -11 -11 -11 -11 -12 -12 -14 -14 -14 -14 -15 -16 -16 -17 -17 -18 -18
1 -1 -1 -1 -1 -0 -1 -1 -1 -1 -1 -1 -0 -1 -1 -1 -1 -2 -3 -3 -4 -4 -5 -4 -2 -2 -4 -4 -6 -6 -8 -9 -7 -7 -7 -6 -6 -5 -5 -5 -5 -6 -6 -7 -9 -9 -11 -11 -11 -12 -10 -10 -11 -11 -13 -13 -14 -13 -12 -12 -12 -12 -11 -10 -9 -10 -11 -11 -11 -12 -12 -12 -13 -13 -14 -14 -15 -16 -16 -17 -17 -18 -18 -18 -19
1 -1 -1 -1 -1 -0 -1 -1 -0 -1 -1 -1 -1 -3 -2 -1 -1 -3 -4 -4 -4 -5 -5 -5 -4 -3 -5 -7 -7 -8 -9 -8 -11 -8 -9 -9 -8 -8 -7 -6 -6 -7 -8 -9 -10 -11 -11 -11 -11 -11 -11 -10 -12 -12 -12 -12 -14 -13 -12 -12 -12 -11 -11 -10 -11 -12 -12 -12 -12 -13 -13 -14 -14 -15 -15 -15 -16 -16 -17 -18 -18 -18 -19 -19 -19
1 -0 -1 -1 -1 -0 -0 -0 -1 -1 -1 -2 -1 -1 -1 -1 -2 -3 -4 -5 -5 -5 -5 -5 -4 -5 -7 -9 -10 -10 -10 -10 -10 -10 -10 -10 -8 -7 -6 -7 -8 -8 -9 -10 -11 -12 -12 -12 -11 -11 -12 -13 -13 -15 -13 -12 -13 -13 -13 -12 -12 -11 -11 -12 -13 -13 -12 -13 -13 -14 -14 -15 -15 -15 -16 -16 -17 -18 -18 -18 -19 -19 -19 -19 -19
2 -0 -1 -1 -0 0 0 -0 -1 -1 -1 -2 -1 -1 -2 -2 -3 -3 -4 -5 -6 -6 -6 -5 -4 -5 -9 -10 -11 -11 -11 -11 -11 -10 -9 -8 -8 -8 -7 -8 -9 -9 -10 -11 -12 -13 -13 -12 -12 -13 -13 -12 -13 -13 -13 -13 -14 -13 -13 -12 -12 -11 -12 -13 -13 -12 -13 -14 -14 -14 -15 -15 -17 -17 -17 -17 -17 -18 -18 -19 -19 -18 -19 -20 -20
2 1 -0 -1 -0 -0 -0 -0 -1 -1 -1 -2 -1 -1 -2 -2 -3 -4 -5 -5 -6 -6 -6 -5 -4 -5 -8 -10 -11 -12 -12 -12 -11 -9 -9 -8 -7 -7 -7 -9 -9 -10 -10 -11 -11 -14 -12 -12 -14 -13 -12 -12 -13 -13 -12 -14 -12 -12 -13 -12 -11 -11 -11 -12 -12 -13 -13 -14 -15 -15 -16 -16 -17 -17 -16 -17 -17 -18 -19 -19 -20 -19 -20 -20 -20
3 2 0 -0 -0 -0 -0 -1 -1 -1 -1 -2 -2 -2 -3 -3 -3 -5 -6 -5 -6 -7 -6 -5 -5 -5 -6 -9 -10 -11 -11 -11 -10 -9 -9 -9 -8 -8 -9 -10 -10 -11 -12 -12 -14 -13 -14 -13 -13 -12 -12 -12 -13 -13 -14 -13 -13 -11 -12 -11 -13 -13 -13 -13 -14 -14 -15 -15 -15 -16 -16 -17 -17 -17 -16 -16 -18 -18 -18 -19 -19 -20 -19 -19 -20
3 1 1 0 0 -0 -0 -1 -1 -4 -2 -2 -2 -2 -3 -3 -4 -5 -6 -6 -6 -7 -6 -6 -5 -5 -6 -7 -8 -9 -10 -9 -9 -8 -8 -7 -8 -8 -10 -12 -12 -12 -14 -14 -13 -12 -13 -13 -13 -13 -12 -13 -13 -14 -13 -14 -13 -13 -13 -13 -13 -13 -14 -13 -15 -15 -16 -16 -17 -17 -18 -18 -18 -17 -17 -18 -19 -18 -19 -19 -19 -19 -20 -19 -19
3 2 1 1 0 0 -1 -1 -2 -2 -2 -2 -3 -3 -4 -4 -4 -5 -6 -6 -6 -6 -6 -6 -6 -6 -7 -7 -7 -7 -8 -8 -7 -8 -7 -7 -8 -9 -9 -10 -12 -12 -13 -13 -13 -14 -13 -13 -12 -12 -12 -13 -13 -13 -13 -13 -13 -14 -15 -14 -14 -12 -12 -12 -14 -16 -14 -15 -17 -19 -19 -19 -19 -19 -18 -19 -19 -19 -19 -20 -21 -20 -20 -20 -20
3 2 2 1 1 0 -0 -1 -1 -2 -2 -2 -2 -3 -4 -5 -5 -6 -6 -6 -6 -7 -6 -6 -6 -6 -7 -7 -8 -7 -7 -8 -7 -7 -7 -9 -9 -10 -9 -10 -11 -13 -12 -14 -13 -13 -14 -15 -15 -13 -13 -13 -13 -13 -13 -14 -13 -14 -14 -15 -12 -12 -12 -12 -13 -13 -15 -18 -17 -18 -19 -19 -20 -20 -21 -20 -20 -21 -21 -21 -21 -20 -20 -21 -21
3 3 2 1 1 1 -0 -0 -1 -1 -1 -2 -2 -3 -4 -5 -5 -6 -6 -6 -7 -7 -7 -6 -6 -6 -7 -7 -8 -8 -8 -8 -7 -8 -8 -9 -9 -9 -9 -10 -10 -13 -14 -14 -14 -14 -15 -14 -14 -13 -14 -13 -13 -13 -14 -13 -13 -14 -12 -11 -12 -13 -13 -13 -15 -14 -14 -14 -18 -18 -19 -19 -19 -20 -20 -21 -22 -23 -19 -19 -20 -21 -21 -21 -21